{"data":{"norad_id":63927,"epoch":"2026-09-20T22:43:25.362048Z","epoch_age_seconds":108521,"freshness":"FRESH","line1":"1 63927U 25098B   26263.94682132  .00014126  00000+0  49465-3 0  9999","line2":"2 63927  69.9996 140.0075 0003130 269.4759  90.6057 15.29598373 75868","mean_motion":15.29598373,"eccentricity":0.000313,"inclination_deg":69.9996,"raan_deg":140.0075,"arg_perigee_deg":269.4759,"mean_anomaly_deg":90.6057,"bstar":0.00049465,"rev_number":7586,"period_min":94.142359551268,"perigee_km":474.86634632095,"apogee_km":479.15766959993,"semimajor_km":6855.1490079604,"source":"CELESTRAK","updated_at":"2026-09-21T09:00:35.148959Z"}}